{"data":{"norad_id":53036,"epoch":"2026-05-25T02:54:34.920000Z","epoch_age_seconds":73366,"freshness":"FRESH","line1":"1 53036U 22076BC  26145.12123750  .00006501  00000+0  42608-3 0  9997","line2":"2 53036  53.2139  91.0046 0001364  88.9967 271.1181 15.08850282214662","mean_motion":15.08850282,"eccentricity":0.0001364,"inclination_deg":53.2139,"raan_deg":91.0046,"arg_perigee_deg":88.9967,"mean_anomaly_deg":271.1181,"bstar":0.00042608,"rev_number":21466,"period_min":95.43690432236,"perigee_km":538.76836658365,"apogee_km":540.65555578026,"semimajor_km":6917.848961182,"source":"CELESTRAK","updated_at":"2026-05-25T13:38:17.284611Z"}}